Location: Karlovy Vary
(50.2170°N, 12.9000°E)
Time: 00:56:51
(UTC+02:00)

ISS - Visible Passes

Search period start: 02 October 2020 00:00
Search period end: 12 October 2020 00:00
Orbit: 419 x 421 km, 51.6° (Epoch: 02 October)

Date Brightness Start Highest point End Pass type
(mag) Time Alt. Az. Time Alt. Az. Time Alt. Az.
02 Oct -3.0 20:18:53 10° W 20:22:08 46° SSW 20:23:18 31° SSE visible
03 Oct -3.4 19:31:33 10° WNW 19:34:54 63° SSW 19:37:58 12° ESE visible
03 Oct -1.2 21:09:08 10° W 21:10:57 16° SW 21:10:57 16° SW visible
04 Oct -1.7 20:21:25 10° W 20:24:07 23° SW 20:25:41 16° S visible
05 Oct -2.2 19:33:54 10° W 19:36:57 32° SSW 19:40:00 10° SSE visible
06 Oct -0.7 20:25:28 10° SW 20:25:53 10° SW 20:26:17 10° SW visible
07 Oct -1.0 19:36:43 10° W 19:38:47 15° SW 19:40:51 10° S visible
